Regional Weather Roundup
Issued by NWS

Home | Current Version | Previous Version | Text Only | Print | Product List | Glossary On
Versions: 1 2 3 4 5 6 7 8 9 10 11 12 13 14 15 16 17 18 19 20 21 22 23 24 25 26 27 28 29 30 31 32 33 34 35 36 37 38 39 40 41 42 43 44 45 46 47 48 49 50
000
ASUS43 KMPX 302001
RWRMN
WEATHER ROUNDUP FOR MINNESOTA
NATIONAL WEATHER SERVICE TWIN CITIES/CHANHASSEN MN
200 PM CST FRI JAN 30 2015


NOTE: "FAIR" INDICATES FEW OR NO CLOUDS BELOW 12,000 FEET WITH NO
SIGNIFICANT WEATHER AND/OR OBSTRUCTIONS TO VISIBILITY. N/A MEANS
CURRENT SKY AND/OR WEATHER CONDITIONS ARE NOT AVAILABLE.

MNZ060>063-068>070-302100-
   Twin Cities Metro

CITY           SKY/WX    TMP DP  RH WIND       PRES   REMARKS
TWIN CITIES    MOSUNNY   25  11  55 S7        30.39F WCI  17
ST PAUL        PTSUNNY   24  10  55 S10       30.41F WCI  14
CRYSTAL        PTSUNNY   25  11  55 S10       30.36F WCI  15
BLAINE         MOSUNNY   25  12  58 S9        30.37F WCI  15
LAKEVILLE      MOSUNNY   25  14  63 S8        30.38F WCI  16
EDEN PRAIRIE   FAIR      26  13  57 S12       30.37F WCI  16
SOUTH ST PAUL  MOSUNNY   26  13  58 S8        30.39F WCI  17
LAKE ELMO      FAIR      21  14  73 S8        30.39F WCI  12
$$
MNZ001>005-007-008-013>017-022>024-027-028-302100-
   Northwest Minnesota

CITY           SKY/WX    TMP DP  RH WIND       PRES   REMARKS
BEMIDJI        CLOUDY    17  10  76 SE8       30.19F WCI   6
HALLOCK        CLOUDY    19  16  86 S15       30.15F WCI   5
ROSEAU         PTSUNNY   18  12  79 S14       30.16F WCI   4
WARROAD        PTSUNNY   16  10  79 S5        30.17F WCI   9
THIEF RVR FALL CLOUDY    21  16  79 S12       30.16F WCI   9
CROOKSTON      PTSUNNY   25  18  74 SW16      30.18F WCI  12
FOSSTON        CLOUDY    19  18  93 SE8       30.15F WCI   9
DETROIT LAKES  SUNNY     21  19  93 S15G21    30.17F WCI   8
MOORHEAD       MOSUNNY   27  21  80 S20G28    30.18F WCI  13
PARK RAPIDS    CLOUDY    22  12  65 S10       30.20F WCI  11
MAHNOMEN       CLOUDY    22  15  76 S15G21    30.16F WCI   8
$$
MNZ006-009>011-018-025>026-302100-
   North Central Minnesota

CITY           SKY/WX    TMP DP  RH WIND       PRES   REMARKS
BAUDETTE       LGT SNOW  11   6  81 SE8       30.17F WCI  -1
FLAG ISLAND    LGT SNOW   9   5  85 S18       30.17F WCI -10
INTL FALLS     LGT SNOW   9   3  77 SE8       30.23F WCI  -3
WASKISH        PTSUNNY   18   9  68 SE7       30.20F WCI   8
BIG FORK       PTSUNNY   16   3  57 S9        30.24F WCI   4
LONGVILLE      CLOUDY    16   9  73 SE6       30.25F WCI   7
GRAND RAPIDS   CLOUDY    14   3  62 S12       30.25F WCI   0
CRANE LAKE     LGT SNOW   9   1  72 SE3       30.31F
ORR            CLOUDY    10   3  72 SE6       30.23F WCI   1
COOK           CLOUDY    10   3  72 SE5       30.27F WCI   2
WALKER         CLOUDY    16   8  71 S8        30.23F WCI   6
$$
MNZ012-019>021-037-302100-
   Northeast Minnesota

CITY           SKY/WX    TMP DP  RH WIND       PRES   REMARKS
DULUTH         CLOUDY    13   2  61 SW7       30.30F WCI   3
ELY            LGT SNOW   9   1  72 SW7       30.28F WCI  -3
HIBBING        CLOUDY    13   2  61 S6        30.28F WCI   4
EVELETH        PTSUNNY   12   5  73 SE3       30.29F
DULUTH HARBOR  CLOUDY    18   3  53 CALM      30.39F
TWO HARBORS    CLOUDY    14   5  67 CALM      30.32F HAZE
SILVER BAY     CLOUDY    16   0  48 S6        30.31F WCI   7
GRAND MARAIS     N/A     15   5  64 SW8       30.37F WCI   4
G MARAIS ARPRT PTSUNNY   10  -6  48 S3        30.25F
$$
MNZ029>031-032-039>041-046>048-054>057-064-302100-
   West Central Minnesota

CITY           SKY/WX    TMP DP  RH WIND       PRES   REMARKS
FERGUS FALLS   MOSUNNY   25  18  74 S17G26    30.23F WCI  11
WHEATON        SUNNY     28  23  80 SE21G26   30.21F WCI  15
MORRIS         MOSUNNY   27  19  74 SE22      30.22F WCI  12
ALEXANDRIA     CLOUDY    19  15  84 S16       30.24F WCI   4
ELBOW LAKE     PTSUNNY   23  18  81 SE22      30.21F WCI   8
WADENA         PTSUNNY   19  12  73 SE16      30.21F WCI   5
GLENWOOD       CLOUDY    21  18  86 SE15      30.26F WCI   8
APPLETON       SUNNY     32  23  69 S15G22    30.25F WCI  22
BENSON         PTSUNNY   27  18  69 S14G23    30.26F WCI  15
ORTONVILLE     SUNNY     34  25  69 S16G22    30.21F WCI  23
MADISON        SUNNY     37  28  70 S20       30.24F
WILLMAR        CLOUDY    25  18  74 S14       30.30F WCI  13
$$
MNZ033>034-036-042>043-049>051-058-059-302100-
   Central Minnesota

CITY           SKY/WX    TMP DP  RH WIND       PRES   REMARKS
ST CLOUD       SUNNY     22  11  62 S12G21    30.33F WCI  10
SAUK CENTRE    FAIR      22  15  74 S15       30.28F WCI   9
PAYNESVILLE    SUNNY     20  14  76 SE10      30.30F WCI   9
AITKIN         PTSUNNY   21  10  63 S9        30.28F WCI  11
PINE RIVER     CLOUDY    19  10  68 S9        30.28F WCI   9
BRAINERD       PTSUNNY   22  10  60 S10       30.27F WCI  11
STAPLES        CLOUDY    21  12  68 S10       30.24F WCI  10
LONG PRAIRIE   FAIR      23  14  68 SE13      30.26F WCI  11
LITTLE FALLS   MOSUNNY   23  10  58 S10       30.30F WCI  12
LITCHFIELD     SUNNY     25  18  74 S3        30.33F
BUFFALO        SUNNY     24  13  63 S8G16     30.36F WCI  15
MAPLE LAKE     SUNNY     25  16  67 S10G16    30.35F WCI  15
$$
MNZ037-044-045-052-053-302100-
   East Central Minnesota

CITY           SKY/WX    TMP DP  RH WIND       PRES   REMARKS
PRINCETON      SUNNY     25  10  54 S12       30.33F WCI  14
MORA           MOSUNNY   19   7  58 S8        30.36F WCI   9
CAMBRIDGE      MOSUNNY   25  10  54 S10       30.34F WCI  15
RUSH CITY      MOSUNNY   20   9  62 S8        30.36F WCI  10
MOOSE LAKE     CLOUDY    18   5  57 S6        30.32F WCI   9
HINCKLEY       FAIR      19   9  63 S8        30.36F WCI   9
CLOQUET        CLOUDY    16   3  57 S5        30.30F WCI   9
MCGREGOR       CLOUDY    19   9  63 S9        30.30F WCI   9
$$
MNZ071>073-080-081-089-090-097-098-302100-
   Southwest Minnesota

CITY           SKY/WX    TMP DP  RH WIND       PRES   REMARKS
MONTEVIDEO     SUNNY     30  25  80 S14G20    30.28F WCI  20
GRANITE FALLS  MOSUNNY   30  23  76 SE15G22   30.30F WCI  19
CANBY          SUNNY     36  26  68 S13       30.25F
MARSHALL       SUNNY     32  21  64 S15       30.29F WCI  22
REDWOOD FALLS  PTSUNNY   26  19  74 S15       30.32F WCI  14
OLIVIA         CLOUDY    23  19  86 S12G20    30.31F WCI  12
PIPESTONE      SUNNY     30  27  86 S18       30.24F WCI  18
WINDOM         SUNNY     30  21  69 S13       30.31F WCI  20
WORTHINGTON    SUNNY     28  21  74 S14       30.31F WCI  17
JACKSON        SUNNY     32  21  64 S13       30.34F WCI  22
TRACY          SUNNY     32  24  74 S16       30.28F WCI  21
SLAYTON        SUNNY     31  24  77 S17       30.28F WCI  19
$$
MNZ065>067-074>077-082>085-091>093-302100-
   South Central Minnesota

CITY           SKY/WX    TMP DP  RH WIND       PRES   REMARKS
MANKATO        SUNNY     27  16  63 S12       30.37F WCI  16
NEW ULM        SUNNY     27  18  69 S10       30.36F WCI  17
ST JAMES       SUNNY     30  18  59 S13       30.37F WCI  20
FAIRMONT       SUNNY     28  18  64 S14       30.36F WCI  17
GLENCOE        SUNNY     27  19  73 S8        30.35F WCI  18
FARIBAULT      SUNNY     27  16  63 S8        30.39F WCI  18
OWATONNA       SUNNY     27  16  63 S9        30.38F WCI  17
WASECA         SUNNY     27  19  74 S9        30.39F WCI  17
ALBERT LEA     SUNNY     27  16  63 SW8       30.39F WCI  18
$$
MNZ078>079-086>088-094>096-302100-
   Southeast Minnesota

CITY           SKY/WX    TMP DP  RH WIND       PRES   REMARKS
ROCHESTER      MOSUNNY   20  12  71 SW13      30.41F WCI   7
RED WING       SUNNY     23  10  58 S6        30.41F WCI  16
STANTON        MOSUNNY   27  15  61 S9        30.39F WCI  18
DODGE CENTER   SUNNY     23  16  74 S12       30.38F WCI  12
WINONA         MOSUNNY   23   9  54 S3        30.46F
AUSTIN         SUNNY     25  14  63 S12       30.40F WCI  14
PRESTON        SUNNY     21   9  60 S6        30.41F WCI  14
$$
ABBREVIATIONS USED IN REMARKS
   TC - TEMPERATURES IN CELSIUS
  WCI - WIND CHILL INDEX
   HX - HEAT INDEX
  VSB - VISIBILITY
$$



USA.gov is the U.S. government's official web portal to all federal, state and local government web resources and services.